ONEWEB-0207 (48242 NORAD) Tracking and Keplerian Element Data

This shows tracking and keplerian element data for the satellite.

Feedback or suggestion? Click here.




ElementValue
Catalog48242
NameONEWEB-0207
Epoch Orbit1453
Epoch Day215.25002315
Epoch Year2021
RAAN283.4678
Inclination87.7906
Eccentricity0.0006748
Argument of Perigee302.4553
Mean Anonmoly330.4811
Mean Motion13.56472647
Decay Rate1.4E-07
L11 48242U 21031AJ 21215.25002315 .00000014 00000-0 00000+0 0 9990
L22 48242 87.7906 283.4678 0006748 302.4553 330.4811 13.56472647 14532

Live tracking and technical data element details for ONEWEB-0207 (NORAD 48242). ONEWEB-0207 can be tracked NOW for your location showing map with azimuth and elevation plus other details from your city location.

Track the satellite on the map from your city or location and see movement details for azimuth, elevation, latitude, longitude, range, height, and movement on the map or in text.







IsCatalogInMostPopularTable: catalog: 48242, numindb: 34
Update: records affected: 1



GetName: 48242 ONEWEB-0207

Hit Count: updated at: Tue, 03 Aug 2021 23:37:33 GMT